Home > Weather > Nîmes > Past weeks

Flag for France Past Weather in Nîmes, Languedoc-Roussillon, France — Yesterday and Last 2 Weeks

Now
72 °F

Sunny.


Feels Like: 75 °F
Forecast: 65 / 93 °F
Wind: 8 mph from Northwest

Location: Nimes / Garons

Current Time: Jul 29, 2016 at 8:02:23 AM

Latest Report: Jul 29, 2016 at 7:30 AM


Visibility: 10 mi

Pressure: 30.01 "Hg

Humidity: 65%

Dew Point: 59 °F

Location of NîmesLocation

Past Weather in Nîmes — Graph

°F

Nîmes Temperature Yesterday

Maximum temperature yesterday: 93 °F (at 4:30 PM)
Minimum temperature yesterday: 70 °F (at 6:00 AM)
Average temperature yesterday: 81 °F

High & Low Weather Summary for the Past Weeks

 TemperatureHumidityPressure
High95 °F (Jul 26, 3:30 PM)94% (Jul 18, 7:00 AM)30.18 "Hg (Jul 18, 7:00 AM)
Low57 °F (Jul 18, 6:30 AM)15% (Jul 16, 4:00 PM)29.92 "Hg (Jul 21, 5:00 PM)
Average76 °F51%30.05 "Hg
* Reported Jul 14 7:00 AM — Jul 29 7:00 AM, Nîmes, Weather by CustomWeather, © 2016

Note: Actual official high and low records may vary slightly from our data, if they occured in-between our weather recording intervals... More about our weather records

Advertising

Nîmes Weather History for the Previous 24 Hours

Scroll right to see more
 ConditionsComfort  
Time TempWeatherWind HumidityBarometerVisibility
7:00 AM
Fri, Jul 29
70 °FClear.8 mph64%30.01 "Hg10 mi
6:30 AM70 °FClear.8 mph64%30.01 "Hg10 mi
6:00 AM72 °FClear.7 mph61%30.01 "Hg10 mi
5:30 AM72 °FClear.6 mph61%29.98 "Hg10 mi
5:00 AM72 °FClear.6 mph61%29.98 "Hg10 mi
4:30 AM72 °FPassing clouds.6 mph61%30.01 "HgN/A
4:00 AM73 °FClear.5 mph57%30.01 "Hg10 mi
3:30 AM73 °FClear.6 mph57%30.01 "Hg10 mi
3:00 AM73 °FPassing clouds.6 mph57%30.01 "HgN/A
2:30 AM73 °FClear.8 mph57%30.01 "Hg10 mi
2:00 AM73 °FPassing clouds.7 mph57%30.01 "HgN/A
1:30 AM75 °FClear.3 mph50%30.01 "Hg10 mi
1:00 AM75 °FPassing clouds.8 mph54%30.01 "HgN/A
12:30 AM77 °FClear.9 mph51%30.01 "Hg10 mi
12:00 AM77 °FClear.6 mph47%30.01 "Hg10 mi
11:30 PM
Thu, Jul 28
79 °FClear.9 mph45%30.01 "Hg10 mi
11:00 PM79 °FPassing clouds.9 mph45%29.98 "HgN/A
10:30 PM81 °FPassing clouds.8 mph42%29.98 "HgN/A
10:00 PM81 °FPassing clouds.6 mph42%29.98 "HgN/A
9:30 PM81 °FPassing clouds.7 mph42%29.98 "HgN/A
9:00 PM84 °FPassing clouds.8 mph37%29.98 "HgN/A
8:30 PM86 °FPassing clouds.9 mph38%29.95 "HgN/A
8:00 PM86 °FPassing clouds.8 mph38%29.95 "HgN/A
7:30 PM90 °FPassing clouds.10 mph33%29.95 "HgN/A
7:00 PM88 °FPassing clouds.12 mph35%29.95 "HgN/A
6:30 PM93 °FPassing clouds.9 mph28%29.95 "HgN/A
6:00 PM93 °FPassing clouds.6 mph26%29.95 "HgN/A
5:30 PM93 °FPassing clouds.9 mph26%29.95 "HgN/A
5:00 PM93 °FPassing clouds.9 mph26%29.95 "HgN/A
4:30 PM93 °FPassing clouds.8 mph28%29.98 "HgN/A
4:00 PM91 °FPassing clouds.7 mph28%29.98 "HgN/A
3:30 PM91 °FPassing clouds.10 mph28%29.98 "HgN/A
3:00 PM91 °FPassing clouds.8 mph28%30.01 "HgN/A
2:30 PM90 °FPassing clouds.12 mph29%30.01 "HgN/A
2:00 PM90 °FPassing clouds.9 mph27%30.01 "HgN/A
1:30 PM88 °FPassing clouds.8 mph31%30.01 "HgN/A
1:00 PM88 °FPassing clouds.12 mph29%30.04 "HgN/A
12:30 PM86 °FPassing clouds.10 mph33%30.04 "HgN/A
12:00 PM84 °FPassing clouds.10 mph35%30.04 "HgN/A
11:30 AM84 °FPassing clouds.13 mph35%30.04 "HgN/A
11:00 AM82 °FPassing clouds.12 mph37%30.04 "HgN/A
10:30 AM82 °FPassing clouds.14 mph40%30.04 "HgN/A
10:00 AM81 °FPassing clouds.12 mph39%30.04 "HgN/A
9:30 AM79 °FPassing clouds.13 mph45%30.04 "HgN/A
9:00 AM77 °FPassing clouds.12 mph47%30.04 "HgN/A
8:30 AM75 °FPassing clouds.12 mph50%30.04 "HgN/A
8:00 AM73 °FSunny.12 mph53%30.04 "Hg10 mi
Weather by CustomWeather, © 2016

See weather overviewHow to use our weather pages